<?xml version="1.0" encoding="UTF-8" standalone="no" ?>
<gpx xmlns="http://www.topografix.com/GPX/1/1" xmlns:xsi="http://www.w3.org/2001/XMLSchema-instance" xsi:schemaLocation="http://www.topografix.com/GPX/1/1 http://www.topografix.com/GPX/1/1/gpx.xsd" version="1.1" creator="VisuGPX - https://www.visugpx.com">
  <metadata>
    <name>Randonnée des Rois 2026 By Indestructeam - 12KM</name>
    <desc><![CDATA[#Indestructeam #RandonneeDesRois #Oingt #Beaujolais #PierresDorees]]></desc>
  </metadata>
  <wpt lat="45.97624" lon="4.59601">
    <ele>482</ele>
    <name><![CDATA[Ravitaillement]]></name>
    <desc><![CDATA[]]></desc>
  </wpt>
  <trk>
    <name><![CDATA[rando des rois 10 KM 2026-22519431]]></name>
    <trkseg>
      <trkpt lat="45.94487" lon="4.58338">
        <ele>520</ele>
        <time>2025-10-29T20:38:36Z</time>
      </trkpt>
      <trkpt lat="45.94489" lon="4.58343">
        <ele>519</ele>
        <time>2025-10-29T20:38:41Z</time>
      </trkpt>
      <trkpt lat="45.94545" lon="4.58316">
        <ele>521</ele>
        <time>2025-10-29T20:40:00Z</time>
      </trkpt>
      <trkpt lat="45.94587" lon="4.58298">
        <ele>521</ele>
        <time>2025-10-29T20:40:59Z</time>
      </trkpt>
      <trkpt lat="45.94635" lon="4.5828">
        <ele>524</ele>
        <time>2025-10-29T20:42:05Z</time>
      </trkpt>
      <trkpt lat="45.94662" lon="4.58277">
        <ele>525</ele>
        <time>2025-10-29T20:42:41Z</time>
      </trkpt>
      <trkpt lat="45.94664" lon="4.58262">
        <ele>527</ele>
        <time>2025-10-29T20:42:55Z</time>
      </trkpt>
      <trkpt lat="45.94669" lon="4.58248">
        <ele>528</ele>
        <time>2025-10-29T20:43:10Z</time>
      </trkpt>
      <trkpt lat="45.94673" lon="4.58228">
        <ele>525</ele>
        <time>2025-10-29T20:43:29Z</time>
      </trkpt>
      <trkpt lat="45.94677" lon="4.5822">
        <ele>525</ele>
        <time>2025-10-29T20:43:38Z</time>
      </trkpt>
      <trkpt lat="45.94683" lon="4.58211">
        <ele>524</ele>
        <time>2025-10-29T20:43:50Z</time>
      </trkpt>
      <trkpt lat="45.94691" lon="4.58202">
        <ele>524</ele>
        <time>2025-10-29T20:44:03Z</time>
      </trkpt>
      <trkpt lat="45.94708" lon="4.58193">
        <ele>525</ele>
        <time>2025-10-29T20:44:28Z</time>
      </trkpt>
      <trkpt lat="45.94721" lon="4.58188">
        <ele>526</ele>
        <time>2025-10-29T20:44:45Z</time>
      </trkpt>
      <trkpt lat="45.94732" lon="4.58184">
        <ele>527</ele>
        <time>2025-10-29T20:45:01Z</time>
      </trkpt>
      <trkpt lat="45.94742" lon="4.58184">
        <ele>528</ele>
        <time>2025-10-29T20:45:14Z</time>
      </trkpt>
      <trkpt lat="45.94751" lon="4.58182">
        <ele>529</ele>
        <time>2025-10-29T20:45:26Z</time>
      </trkpt>
      <trkpt lat="45.94753" lon="4.58183">
        <ele>529</ele>
        <time>2025-10-29T20:45:29Z</time>
      </trkpt>
      <trkpt lat="45.94755" lon="4.58187">
        <ele>529</ele>
        <time>2025-10-29T20:45:34Z</time>
      </trkpt>
      <trkpt lat="45.94764" lon="4.58186">
        <ele>529</ele>
        <time>2025-10-29T20:45:46Z</time>
      </trkpt>
      <trkpt lat="45.94767" lon="4.58186">
        <ele>529</ele>
        <time>2025-10-29T20:45:50Z</time>
      </trkpt>
      <trkpt lat="45.94768" lon="4.58188">
        <ele>530</ele>
        <time>2025-10-29T20:45:52Z</time>
      </trkpt>
      <trkpt lat="45.94768" lon="4.58191">
        <ele>530</ele>
        <time>2025-10-29T20:45:55Z</time>
      </trkpt>
      <trkpt lat="45.94773" lon="4.5819">
        <ele>530</ele>
        <time>2025-10-29T20:46:01Z</time>
      </trkpt>
      <trkpt lat="45.94789" lon="4.58188">
        <ele>530</ele>
        <time>2025-10-29T20:46:23Z</time>
      </trkpt>
      <trkpt lat="45.94791" lon="4.58189">
        <ele>530</ele>
        <time>2025-10-29T20:46:26Z</time>
      </trkpt>
      <trkpt lat="45.94793" lon="4.58201">
        <ele>531</ele>
        <time>2025-10-29T20:46:37Z</time>
      </trkpt>
      <trkpt lat="45.94791" lon="4.58206">
        <ele>532</ele>
        <time>2025-10-29T20:46:42Z</time>
      </trkpt>
      <trkpt lat="45.94797" lon="4.58225">
        <ele>534</ele>
        <time>2025-10-29T20:47:02Z</time>
      </trkpt>
      <trkpt lat="45.94799" lon="4.5824">
        <ele>536</ele>
        <time>2025-10-29T20:47:16Z</time>
      </trkpt>
      <trkpt lat="45.94798" lon="4.58252">
        <ele>537</ele>
        <time>2025-10-29T20:47:27Z</time>
      </trkpt>
      <trkpt lat="45.9481" lon="4.58256">
        <ele>536</ele>
        <time>2025-10-29T20:47:44Z</time>
      </trkpt>
      <trkpt lat="45.9482" lon="4.58262">
        <ele>536</ele>
        <time>2025-10-29T20:47:58Z</time>
      </trkpt>
      <trkpt lat="45.9483" lon="4.5827">
        <ele>535</ele>
        <time>2025-10-29T20:48:13Z</time>
      </trkpt>
      <trkpt lat="45.94832" lon="4.58276">
        <ele>535</ele>
        <time>2025-10-29T20:48:20Z</time>
      </trkpt>
      <trkpt lat="45.9485" lon="4.58283">
        <ele>532</ele>
        <time>2025-10-29T20:48:44Z</time>
      </trkpt>
      <trkpt lat="45.94855" lon="4.58285">
        <ele>531</ele>
        <time>2025-10-29T20:48:51Z</time>
      </trkpt>
      <trkpt lat="45.94858" lon="4.58296">
        <ele>531</ele>
        <time>2025-10-29T20:49:02Z</time>
      </trkpt>
      <trkpt lat="45.94864" lon="4.58304">
        <ele>530</ele>
        <time>2025-10-29T20:49:13Z</time>
      </trkpt>
      <trkpt lat="45.94869" lon="4.58307">
        <ele>529</ele>
        <time>2025-10-29T20:49:20Z</time>
      </trkpt>
      <trkpt lat="45.94878" lon="4.58303">
        <ele>528</ele>
        <time>2025-10-29T20:49:33Z</time>
      </trkpt>
      <trkpt lat="45.9488" lon="4.58303">
        <ele>528</ele>
        <time>2025-10-29T20:49:36Z</time>
      </trkpt>
      <trkpt lat="45.94892" lon="4.58299">
        <ele>527</ele>
        <time>2025-10-29T20:49:52Z</time>
      </trkpt>
      <trkpt lat="45.94895" lon="4.58319">
        <ele>527</ele>
        <time>2025-10-29T20:50:11Z</time>
      </trkpt>
      <trkpt lat="45.949" lon="4.58335">
        <ele>528</ele>
        <time>2025-10-29T20:50:27Z</time>
      </trkpt>
      <trkpt lat="45.94898" lon="4.58349">
        <ele>527</ele>
        <time>2025-10-29T20:50:41Z</time>
      </trkpt>
      <trkpt lat="45.94899" lon="4.58368">
        <ele>527</ele>
        <time>2025-10-29T20:50:58Z</time>
      </trkpt>
      <trkpt lat="45.949" lon="4.58388">
        <ele>527</ele>
        <time>2025-10-29T20:51:17Z</time>
      </trkpt>
      <trkpt lat="45.94912" lon="4.58395">
        <ele>527</ele>
        <time>2025-10-29T20:51:34Z</time>
      </trkpt>
      <trkpt lat="45.9492" lon="4.58396">
        <ele>527</ele>
        <time>2025-10-29T20:51:45Z</time>
      </trkpt>
      <trkpt lat="45.94943" lon="4.58397">
        <ele>528</ele>
        <time>2025-10-29T20:52:16Z</time>
      </trkpt>
      <trkpt lat="45.94973" lon="4.58402">
        <ele>530</ele>
        <time>2025-10-29T20:52:56Z</time>
      </trkpt>
      <trkpt lat="45.94991" lon="4.58414">
        <ele>531</ele>
        <time>2025-10-29T20:53:22Z</time>
      </trkpt>
      <trkpt lat="45.95014" lon="4.58433">
        <ele>533</ele>
        <time>2025-10-29T20:53:58Z</time>
      </trkpt>
      <trkpt lat="45.95025" lon="4.58438">
        <ele>534</ele>
        <time>2025-10-29T20:54:13Z</time>
      </trkpt>
      <trkpt lat="45.95051" lon="4.58445">
        <ele>536</ele>
        <time>2025-10-29T20:54:48Z</time>
      </trkpt>
      <trkpt lat="45.95071" lon="4.58453">
        <ele>537</ele>
        <time>2025-10-29T20:55:16Z</time>
      </trkpt>
      <trkpt lat="45.95092" lon="4.58463">
        <ele>539</ele>
        <time>2025-10-29T20:55:46Z</time>
      </trkpt>
      <trkpt lat="45.95105" lon="4.58473">
        <ele>540</ele>
        <time>2025-10-29T20:56:05Z</time>
      </trkpt>
      <trkpt lat="45.95112" lon="4.58481">
        <ele>541</ele>
        <time>2025-10-29T20:56:17Z</time>
      </trkpt>
      <trkpt lat="45.9512" lon="4.58495">
        <ele>542</ele>
        <time>2025-10-29T20:56:34Z</time>
      </trkpt>
      <trkpt lat="45.95149" lon="4.58526">
        <ele>544</ele>
        <time>2025-10-29T20:57:22Z</time>
      </trkpt>
      <trkpt lat="45.95177" lon="4.58556">
        <ele>544</ele>
        <time>2025-10-29T20:58:09Z</time>
      </trkpt>
      <trkpt lat="45.95191" lon="4.58576">
        <ele>545</ele>
        <time>2025-10-29T20:58:35Z</time>
      </trkpt>
      <trkpt lat="45.952" lon="4.58595">
        <ele>545</ele>
        <time>2025-10-29T20:58:57Z</time>
      </trkpt>
      <trkpt lat="45.95229" lon="4.5866">
        <ele>545</ele>
        <time>2025-10-29T21:00:08Z</time>
      </trkpt>
      <trkpt lat="45.95237" lon="4.58675">
        <ele>546</ele>
        <time>2025-10-29T21:00:26Z</time>
      </trkpt>
      <trkpt lat="45.95308" lon="4.58805">
        <ele>546</ele>
        <time>2025-10-29T21:02:59Z</time>
      </trkpt>
      <trkpt lat="45.95327" lon="4.58844">
        <ele>547</ele>
        <time>2025-10-29T21:03:43Z</time>
      </trkpt>
      <trkpt lat="45.95356" lon="4.5891">
        <ele>552</ele>
        <time>2025-10-29T21:04:56Z</time>
      </trkpt>
      <trkpt lat="45.95365" lon="4.58926">
        <ele>554</ele>
        <time>2025-10-29T21:05:15Z</time>
      </trkpt>
      <trkpt lat="45.95375" lon="4.58938">
        <ele>556</ele>
        <time>2025-10-29T21:05:32Z</time>
      </trkpt>
      <trkpt lat="45.95394" lon="4.58953">
        <ele>559</ele>
        <time>2025-10-29T21:06:01Z</time>
      </trkpt>
      <trkpt lat="45.9544" lon="4.58978">
        <ele>561</ele>
        <time>2025-10-29T21:07:07Z</time>
      </trkpt>
      <trkpt lat="45.95454" lon="4.58991">
        <ele>563</ele>
        <time>2025-10-29T21:07:29Z</time>
      </trkpt>
      <trkpt lat="45.95477" lon="4.59016">
        <ele>568</ele>
        <time>2025-10-29T21:08:08Z</time>
      </trkpt>
      <trkpt lat="45.95504" lon="4.59035">
        <ele>572</ele>
        <time>2025-10-29T21:08:48Z</time>
      </trkpt>
      <trkpt lat="45.95522" lon="4.59043">
        <ele>574</ele>
        <time>2025-10-29T21:09:13Z</time>
      </trkpt>
      <trkpt lat="45.95538" lon="4.59049">
        <ele>575</ele>
        <time>2025-10-29T21:09:35Z</time>
      </trkpt>
      <trkpt lat="45.95598" lon="4.59053">
        <ele>577</ele>
        <time>2025-10-29T21:10:55Z</time>
      </trkpt>
      <trkpt lat="45.95633" lon="4.59051">
        <ele>578</ele>
        <time>2025-10-29T21:11:42Z</time>
      </trkpt>
      <trkpt lat="45.95654" lon="4.59046">
        <ele>578</ele>
        <time>2025-10-29T21:12:10Z</time>
      </trkpt>
      <trkpt lat="45.95678" lon="4.59039">
        <ele>579</ele>
        <time>2025-10-29T21:12:43Z</time>
      </trkpt>
      <trkpt lat="45.9573" lon="4.59017">
        <ele>579</ele>
        <time>2025-10-29T21:13:55Z</time>
      </trkpt>
      <trkpt lat="45.95789" lon="4.59008">
        <ele>584</ele>
        <time>2025-10-29T21:15:14Z</time>
      </trkpt>
      <trkpt lat="45.9581" lon="4.59001">
        <ele>584</ele>
        <time>2025-10-29T21:15:43Z</time>
      </trkpt>
      <trkpt lat="45.95845" lon="4.58985">
        <ele>585</ele>
        <time>2025-10-29T21:16:32Z</time>
      </trkpt>
      <trkpt lat="45.95877" lon="4.58966">
        <ele>588</ele>
        <time>2025-10-29T21:17:18Z</time>
      </trkpt>
      <trkpt lat="45.95898" lon="4.58949">
        <ele>589</ele>
        <time>2025-10-29T21:17:50Z</time>
      </trkpt>
      <trkpt lat="45.95936" lon="4.58929">
        <ele>592</ele>
        <time>2025-10-29T21:18:44Z</time>
      </trkpt>
      <trkpt lat="45.95982" lon="4.58906">
        <ele>595</ele>
        <time>2025-10-29T21:19:49Z</time>
      </trkpt>
      <trkpt lat="45.96002" lon="4.58903">
        <ele>598</ele>
        <time>2025-10-29T21:20:16Z</time>
      </trkpt>
      <trkpt lat="45.9602" lon="4.58906">
        <ele>598</ele>
        <time>2025-10-29T21:20:40Z</time>
      </trkpt>
      <trkpt lat="45.96031" lon="4.58911">
        <ele>598</ele>
        <time>2025-10-29T21:20:56Z</time>
      </trkpt>
      <trkpt lat="45.9604" lon="4.58917">
        <ele>599</ele>
        <time>2025-10-29T21:21:09Z</time>
      </trkpt>
      <trkpt lat="45.96078" lon="4.58944">
        <ele>602</ele>
        <time>2025-10-29T21:22:06Z</time>
      </trkpt>
      <trkpt lat="45.96089" lon="4.5895">
        <ele>603</ele>
        <time>2025-10-29T21:22:21Z</time>
      </trkpt>
      <trkpt lat="45.96111" lon="4.58957">
        <ele>604</ele>
        <time>2025-10-29T21:22:51Z</time>
      </trkpt>
      <trkpt lat="45.96151" lon="4.58963">
        <ele>605</ele>
        <time>2025-10-29T21:23:45Z</time>
      </trkpt>
      <trkpt lat="45.96185" lon="4.58954">
        <ele>605</ele>
        <time>2025-10-29T21:24:31Z</time>
      </trkpt>
      <trkpt lat="45.96221" lon="4.58942">
        <ele>606</ele>
        <time>2025-10-29T21:25:21Z</time>
      </trkpt>
      <trkpt lat="45.96269" lon="4.58912">
        <ele>607</ele>
        <time>2025-10-29T21:26:30Z</time>
      </trkpt>
      <trkpt lat="45.96319" lon="4.5889">
        <ele>606</ele>
        <time>2025-10-29T21:27:40Z</time>
      </trkpt>
      <trkpt lat="45.96356" lon="4.5888">
        <ele>606</ele>
        <time>2025-10-29T21:28:30Z</time>
      </trkpt>
      <trkpt lat="45.96373" lon="4.58878">
        <ele>606</ele>
        <time>2025-10-29T21:28:53Z</time>
      </trkpt>
      <trkpt lat="45.96407" lon="4.58876">
        <ele>606</ele>
        <time>2025-10-29T21:29:39Z</time>
      </trkpt>
      <trkpt lat="45.96432" lon="4.58871">
        <ele>606</ele>
        <time>2025-10-29T21:30:12Z</time>
      </trkpt>
      <trkpt lat="45.96448" lon="4.5887">
        <ele>606</ele>
        <time>2025-10-29T21:30:34Z</time>
      </trkpt>
      <trkpt lat="45.96507" lon="4.58876">
        <ele>606</ele>
        <time>2025-10-29T21:31:53Z</time>
      </trkpt>
      <trkpt lat="45.96589" lon="4.58876">
        <ele>602</ele>
        <time>2025-10-29T21:33:42Z</time>
      </trkpt>
      <trkpt lat="45.96603" lon="4.58874">
        <ele>601</ele>
        <time>2025-10-29T21:34:01Z</time>
      </trkpt>
      <trkpt lat="45.96625" lon="4.58867">
        <ele>600</ele>
        <time>2025-10-29T21:34:31Z</time>
      </trkpt>
      <trkpt lat="45.96639" lon="4.58862">
        <ele>600</ele>
        <time>2025-10-29T21:34:50Z</time>
      </trkpt>
      <trkpt lat="45.9667" lon="4.58843">
        <ele>598</ele>
        <time>2025-10-29T21:35:35Z</time>
      </trkpt>
      <trkpt lat="45.9671" lon="4.58815">
        <ele>594</ele>
        <time>2025-10-29T21:36:34Z</time>
      </trkpt>
      <trkpt lat="45.96827" lon="4.58752">
        <ele>587</ele>
        <time>2025-10-29T21:39:21Z</time>
      </trkpt>
      <trkpt lat="45.96841" lon="4.58744">
        <ele>587</ele>
        <time>2025-10-29T21:39:41Z</time>
      </trkpt>
      <trkpt lat="45.96889" lon="4.58714">
        <ele>589</ele>
        <time>2025-10-29T21:40:51Z</time>
      </trkpt>
      <trkpt lat="45.96933" lon="4.58679">
        <ele>590</ele>
        <time>2025-10-29T21:41:58Z</time>
      </trkpt>
      <trkpt lat="45.96946" lon="4.58674">
        <ele>590</ele>
        <time>2025-10-29T21:42:16Z</time>
      </trkpt>
      <trkpt lat="45.96958" lon="4.58674">
        <ele>590</ele>
        <time>2025-10-29T21:42:32Z</time>
      </trkpt>
      <trkpt lat="45.96963" lon="4.58661">
        <ele>590</ele>
        <time>2025-10-29T21:42:46Z</time>
      </trkpt>
      <trkpt lat="45.96984" lon="4.58636">
        <ele>590</ele>
        <time>2025-10-29T21:43:22Z</time>
      </trkpt>
      <trkpt lat="45.97008" lon="4.58613">
        <ele>591</ele>
        <time>2025-10-29T21:44:01Z</time>
      </trkpt>
      <trkpt lat="45.97027" lon="4.58591">
        <ele>591</ele>
        <time>2025-10-29T21:44:33Z</time>
      </trkpt>
      <trkpt lat="45.97042" lon="4.58571">
        <ele>592</ele>
        <time>2025-10-29T21:45:01Z</time>
      </trkpt>
      <trkpt lat="45.9705" lon="4.58554">
        <ele>593</ele>
        <time>2025-10-29T21:45:20Z</time>
      </trkpt>
      <trkpt lat="45.97065" lon="4.58519">
        <ele>595</ele>
        <time>2025-10-29T21:45:58Z</time>
      </trkpt>
      <trkpt lat="45.97073" lon="4.58504">
        <ele>596</ele>
        <time>2025-10-29T21:46:15Z</time>
      </trkpt>
      <trkpt lat="45.97106" lon="4.58474">
        <ele>596</ele>
        <time>2025-10-29T21:47:07Z</time>
      </trkpt>
      <trkpt lat="45.97124" lon="4.58461">
        <ele>596</ele>
        <time>2025-10-29T21:47:34Z</time>
      </trkpt>
      <trkpt lat="45.97127" lon="4.58457">
        <ele>596</ele>
        <time>2025-10-29T21:47:40Z</time>
      </trkpt>
      <trkpt lat="45.97138" lon="4.58445">
        <ele>596</ele>
        <time>2025-10-29T21:47:58Z</time>
      </trkpt>
      <trkpt lat="45.97156" lon="4.58431">
        <ele>596</ele>
        <time>2025-10-29T21:48:25Z</time>
      </trkpt>
      <trkpt lat="45.97175" lon="4.58426">
        <ele>595</ele>
        <time>2025-10-29T21:48:51Z</time>
      </trkpt>
      <trkpt lat="45.97227" lon="4.58408">
        <ele>594</ele>
        <time>2025-10-29T21:50:03Z</time>
      </trkpt>
      <trkpt lat="45.97278" lon="4.58401">
        <ele>592</ele>
        <time>2025-10-29T21:51:11Z</time>
      </trkpt>
      <trkpt lat="45.97322" lon="4.58384">
        <ele>589</ele>
        <time>2025-10-29T21:52:12Z</time>
      </trkpt>
      <trkpt lat="45.97327" lon="4.58378">
        <ele>588</ele>
        <time>2025-10-29T21:52:20Z</time>
      </trkpt>
      <trkpt lat="45.97334" lon="4.58367">
        <ele>587</ele>
        <time>2025-10-29T21:52:34Z</time>
      </trkpt>
      <trkpt lat="45.97339" lon="4.58364">
        <ele>587</ele>
        <time>2025-10-29T21:52:41Z</time>
      </trkpt>
      <trkpt lat="45.97344" lon="4.58361">
        <ele>586</ele>
        <time>2025-10-29T21:52:49Z</time>
      </trkpt>
      <trkpt lat="45.9736" lon="4.58361">
        <ele>585</ele>
        <time>2025-10-29T21:53:10Z</time>
      </trkpt>
      <trkpt lat="45.97392" lon="4.58363">
        <ele>583</ele>
        <time>2025-10-29T21:53:53Z</time>
      </trkpt>
      <trkpt lat="45.97404" lon="4.58365">
        <ele>582</ele>
        <time>2025-10-29T21:54:09Z</time>
      </trkpt>
      <trkpt lat="45.97412" lon="4.58368">
        <ele>582</ele>
        <time>2025-10-29T21:54:20Z</time>
      </trkpt>
      <trkpt lat="45.97423" lon="4.58376">
        <ele>581</ele>
        <time>2025-10-29T21:54:36Z</time>
      </trkpt>
      <trkpt lat="45.9743" lon="4.58378">
        <ele>580</ele>
        <time>2025-10-29T21:54:46Z</time>
      </trkpt>
      <trkpt lat="45.9747" lon="4.58388">
        <ele>576</ele>
        <time>2025-10-29T21:55:40Z</time>
      </trkpt>
      <trkpt lat="45.97493" lon="4.58392">
        <ele>574</ele>
        <time>2025-10-29T21:56:11Z</time>
      </trkpt>
      <trkpt lat="45.97515" lon="4.584">
        <ele>572</ele>
        <time>2025-10-29T21:56:41Z</time>
      </trkpt>
      <trkpt lat="45.97525" lon="4.58402">
        <ele>572</ele>
        <time>2025-10-29T21:56:55Z</time>
      </trkpt>
      <trkpt lat="45.97551" lon="4.58403">
        <ele>570</ele>
        <time>2025-10-29T21:57:29Z</time>
      </trkpt>
      <trkpt lat="45.97575" lon="4.58398">
        <ele>569</ele>
        <time>2025-10-29T21:58:02Z</time>
      </trkpt>
      <trkpt lat="45.97588" lon="4.58397">
        <ele>568</ele>
        <time>2025-10-29T21:58:19Z</time>
      </trkpt>
      <trkpt lat="45.97601" lon="4.58399">
        <ele>567</ele>
        <time>2025-10-29T21:58:37Z</time>
      </trkpt>
      <trkpt lat="45.97629" lon="4.58395">
        <ele>565</ele>
        <time>2025-10-29T21:59:14Z</time>
      </trkpt>
      <trkpt lat="45.97693" lon="4.58392">
        <ele>558</ele>
        <time>2025-10-29T22:00:40Z</time>
      </trkpt>
      <trkpt lat="45.977" lon="4.58391">
        <ele>557</ele>
        <time>2025-10-29T22:00:49Z</time>
      </trkpt>
      <trkpt lat="45.97706" lon="4.58389">
        <ele>557</ele>
        <time>2025-10-29T22:00:57Z</time>
      </trkpt>
      <trkpt lat="45.97713" lon="4.58382">
        <ele>556</ele>
        <time>2025-10-29T22:01:09Z</time>
      </trkpt>
      <trkpt lat="45.97727" lon="4.58365">
        <ele>554</ele>
        <time>2025-10-29T22:01:33Z</time>
      </trkpt>
      <trkpt lat="45.97746" lon="4.58341">
        <ele>551</ele>
        <time>2025-10-29T22:02:07Z</time>
      </trkpt>
      <trkpt lat="45.97756" lon="4.58336">
        <ele>551</ele>
        <time>2025-10-29T22:02:21Z</time>
      </trkpt>
      <trkpt lat="45.97764" lon="4.58334">
        <ele>551</ele>
        <time>2025-10-29T22:02:32Z</time>
      </trkpt>
      <trkpt lat="45.97773" lon="4.58333">
        <ele>551</ele>
        <time>2025-10-29T22:02:44Z</time>
      </trkpt>
      <trkpt lat="45.97811" lon="4.58345">
        <ele>551</ele>
        <time>2025-10-29T22:03:36Z</time>
      </trkpt>
      <trkpt lat="45.9781" lon="4.58327">
        <ele>551</ele>
        <time>2025-10-29T22:03:52Z</time>
      </trkpt>
      <trkpt lat="45.97811" lon="4.58345">
        <ele>551</ele>
        <time>2025-10-29T22:04:09Z</time>
      </trkpt>
      <trkpt lat="45.97803" lon="4.58376">
        <ele>551</ele>
        <time>2025-10-29T22:04:40Z</time>
      </trkpt>
      <trkpt lat="45.97797" lon="4.58394">
        <ele>551</ele>
        <time>2025-10-29T22:04:58Z</time>
      </trkpt>
      <trkpt lat="45.97781" lon="4.58434">
        <ele>550</ele>
        <time>2025-10-29T22:05:41Z</time>
      </trkpt>
      <trkpt lat="45.97761" lon="4.58467">
        <ele>549</ele>
        <time>2025-10-29T22:06:22Z</time>
      </trkpt>
      <trkpt lat="45.97725" lon="4.58516">
        <ele>550</ele>
        <time>2025-10-29T22:07:28Z</time>
      </trkpt>
      <trkpt lat="45.97703" lon="4.58549">
        <ele>551</ele>
        <time>2025-10-29T22:08:10Z</time>
      </trkpt>
      <trkpt lat="45.97689" lon="4.58575">
        <ele>551</ele>
        <time>2025-10-29T22:08:41Z</time>
      </trkpt>
      <trkpt lat="45.97677" lon="4.58607">
        <ele>551</ele>
        <time>2025-10-29T22:09:15Z</time>
      </trkpt>
      <trkpt lat="45.97669" lon="4.58634">
        <ele>550</ele>
        <time>2025-10-29T22:09:42Z</time>
      </trkpt>
      <trkpt lat="45.97663" lon="4.58651">
        <ele>549</ele>
        <time>2025-10-29T22:09:59Z</time>
      </trkpt>
      <trkpt lat="45.97651" lon="4.58674">
        <ele>549</ele>
        <time>2025-10-29T22:10:26Z</time>
      </trkpt>
      <trkpt lat="45.97635" lon="4.58699">
        <ele>548</ele>
        <time>2025-10-29T22:10:58Z</time>
      </trkpt>
      <trkpt lat="45.9761" lon="4.58733">
        <ele>546</ele>
        <time>2025-10-29T22:11:44Z</time>
      </trkpt>
      <trkpt lat="45.97597" lon="4.58746">
        <ele>546</ele>
        <time>2025-10-29T22:12:05Z</time>
      </trkpt>
      <trkpt lat="45.97579" lon="4.5876">
        <ele>545</ele>
        <time>2025-10-29T22:12:32Z</time>
      </trkpt>
      <trkpt lat="45.97491" lon="4.58804">
        <ele>544</ele>
        <time>2025-10-29T22:14:36Z</time>
      </trkpt>
      <trkpt lat="45.97467" lon="4.58818">
        <ele>543</ele>
        <time>2025-10-29T22:15:11Z</time>
      </trkpt>
      <trkpt lat="45.97455" lon="4.58833">
        <ele>543</ele>
        <time>2025-10-29T22:15:32Z</time>
      </trkpt>
      <trkpt lat="45.97445" lon="4.58857">
        <ele>543</ele>
        <time>2025-10-29T22:15:58Z</time>
      </trkpt>
      <trkpt lat="45.97422" lon="4.58976">
        <ele>542</ele>
        <time>2025-10-29T22:17:53Z</time>
      </trkpt>
      <trkpt lat="45.97415" lon="4.59007">
        <ele>542</ele>
        <time>2025-10-29T22:18:23Z</time>
      </trkpt>
      <trkpt lat="45.97402" lon="4.59049">
        <ele>543</ele>
        <time>2025-10-29T22:19:05Z</time>
      </trkpt>
      <trkpt lat="45.97397" lon="4.59062">
        <ele>543</ele>
        <time>2025-10-29T22:19:19Z</time>
      </trkpt>
      <trkpt lat="45.97402" lon="4.59049">
        <ele>543</ele>
        <time>2025-10-29T22:19:33Z</time>
      </trkpt>
      <trkpt lat="45.97494" lon="4.5915">
        <ele>525</ele>
        <time>2025-10-29T22:22:07Z</time>
      </trkpt>
      <trkpt lat="45.97524" lon="4.59188">
        <ele>520</ele>
        <time>2025-10-29T22:23:01Z</time>
      </trkpt>
      <trkpt lat="45.97546" lon="4.59198">
        <ele>517</ele>
        <time>2025-10-29T22:23:32Z</time>
      </trkpt>
      <trkpt lat="45.976" lon="4.59235">
        <ele>509</ele>
        <time>2025-10-29T22:24:51Z</time>
      </trkpt>
      <trkpt lat="45.97615" lon="4.59255">
        <ele>506</ele>
        <time>2025-10-29T22:25:19Z</time>
      </trkpt>
      <trkpt lat="45.97636" lon="4.59307">
        <ele>502</ele>
        <time>2025-10-29T22:26:14Z</time>
      </trkpt>
      <trkpt lat="45.9765" lon="4.5932">
        <ele>500</ele>
        <time>2025-10-29T22:26:37Z</time>
      </trkpt>
      <trkpt lat="45.97677" lon="4.59332">
        <ele>497</ele>
        <time>2025-10-29T22:27:14Z</time>
      </trkpt>
      <trkpt lat="45.97705" lon="4.59334">
        <ele>495</ele>
        <time>2025-10-29T22:27:52Z</time>
      </trkpt>
      <trkpt lat="45.97716" lon="4.59331">
        <ele>495</ele>
        <time>2025-10-29T22:28:07Z</time>
      </trkpt>
      <trkpt lat="45.97716" lon="4.59346">
        <ele>494</ele>
        <time>2025-10-29T22:28:21Z</time>
      </trkpt>
      <trkpt lat="45.97711" lon="4.59375">
        <ele>493</ele>
        <time>2025-10-29T22:28:48Z</time>
      </trkpt>
      <trkpt lat="45.97696" lon="4.59427">
        <ele>491</ele>
        <time>2025-10-29T22:29:41Z</time>
      </trkpt>
      <trkpt lat="45.97692" lon="4.59452">
        <ele>490</ele>
        <time>2025-10-29T22:30:04Z</time>
      </trkpt>
      <trkpt lat="45.9769" lon="4.59473">
        <ele>489</ele>
        <time>2025-10-29T22:30:24Z</time>
      </trkpt>
      <trkpt lat="45.9769" lon="4.59494">
        <ele>487</ele>
        <time>2025-10-29T22:30:44Z</time>
      </trkpt>
      <trkpt lat="45.97689" lon="4.59504">
        <ele>486</ele>
        <time>2025-10-29T22:30:53Z</time>
      </trkpt>
      <trkpt lat="45.97687" lon="4.59511">
        <ele>485</ele>
        <time>2025-10-29T22:31:00Z</time>
      </trkpt>
      <trkpt lat="45.97655" lon="4.59555">
        <ele>483</ele>
        <time>2025-10-29T22:31:59Z</time>
      </trkpt>
      <trkpt lat="45.97651" lon="4.59566">
        <ele>483</ele>
        <time>2025-10-29T22:32:10Z</time>
      </trkpt>
      <trkpt lat="45.97644" lon="4.59577">
        <ele>483</ele>
        <time>2025-10-29T22:32:24Z</time>
      </trkpt>
      <trkpt lat="45.97635" lon="4.59593">
        <ele>483</ele>
        <time>2025-10-29T22:32:43Z</time>
      </trkpt>
      <trkpt lat="45.97627" lon="4.59612">
        <ele>482</ele>
        <time>2025-10-29T22:33:04Z</time>
      </trkpt>
      <trkpt lat="45.97626" lon="4.59621">
        <ele>481</ele>
        <time>2025-10-29T22:33:12Z</time>
      </trkpt>
      <trkpt lat="45.97623" lon="4.5966">
        <ele>476</ele>
        <time>2025-10-29T22:33:49Z</time>
      </trkpt>
      <trkpt lat="45.97619" lon="4.59688">
        <ele>473</ele>
        <time>2025-10-29T22:34:15Z</time>
      </trkpt>
      <trkpt lat="45.9761" lon="4.59714">
        <ele>471</ele>
        <time>2025-10-29T22:34:42Z</time>
      </trkpt>
      <trkpt lat="45.97581" lon="4.59779">
        <ele>470</ele>
        <time>2025-10-29T22:35:54Z</time>
      </trkpt>
      <trkpt lat="45.97574" lon="4.59804">
        <ele>470</ele>
        <time>2025-10-29T22:36:19Z</time>
      </trkpt>
      <trkpt lat="45.97571" lon="4.59832">
        <ele>468</ele>
        <time>2025-10-29T22:36:45Z</time>
      </trkpt>
      <trkpt lat="45.97567" lon="4.59885">
        <ele>463</ele>
        <time>2025-10-29T22:37:35Z</time>
      </trkpt>
      <trkpt lat="45.97561" lon="4.59917">
        <ele>462</ele>
        <time>2025-10-29T22:38:05Z</time>
      </trkpt>
      <trkpt lat="45.97545" lon="4.59975">
        <ele>460</ele>
        <time>2025-10-29T22:39:03Z</time>
      </trkpt>
      <trkpt lat="45.97514" lon="4.60101">
        <ele>452</ele>
        <time>2025-10-29T22:41:07Z</time>
      </trkpt>
      <trkpt lat="45.97492" lon="4.60149">
        <ele>451</ele>
        <time>2025-10-29T22:42:01Z</time>
      </trkpt>
      <trkpt lat="45.97483" lon="4.60158">
        <ele>452</ele>
        <time>2025-10-29T22:42:15Z</time>
      </trkpt>
      <trkpt lat="45.97465" lon="4.60172">
        <ele>453</ele>
        <time>2025-10-29T22:42:42Z</time>
      </trkpt>
      <trkpt lat="45.97418" lon="4.60194">
        <ele>456</ele>
        <time>2025-10-29T22:43:48Z</time>
      </trkpt>
      <trkpt lat="45.97402" lon="4.60195">
        <ele>456</ele>
        <time>2025-10-29T22:44:10Z</time>
      </trkpt>
      <trkpt lat="45.97388" lon="4.60184">
        <ele>459</ele>
        <time>2025-10-29T22:44:31Z</time>
      </trkpt>
      <trkpt lat="45.97384" lon="4.60178">
        <ele>460</ele>
        <time>2025-10-29T22:44:39Z</time>
      </trkpt>
      <trkpt lat="45.97373" lon="4.60168">
        <ele>462</ele>
        <time>2025-10-29T22:44:56Z</time>
      </trkpt>
      <trkpt lat="45.97362" lon="4.60153">
        <ele>466</ele>
        <time>2025-10-29T22:45:16Z</time>
      </trkpt>
      <trkpt lat="45.9736" lon="4.60146">
        <ele>468</ele>
        <time>2025-10-29T22:45:23Z</time>
      </trkpt>
      <trkpt lat="45.97369" lon="4.60126">
        <ele>472</ele>
        <time>2025-10-29T22:45:45Z</time>
      </trkpt>
      <trkpt lat="45.97379" lon="4.60097">
        <ele>478</ele>
        <time>2025-10-29T22:46:16Z</time>
      </trkpt>
      <trkpt lat="45.97385" lon="4.60086">
        <ele>481</ele>
        <time>2025-10-29T22:46:28Z</time>
      </trkpt>
      <trkpt lat="45.97393" lon="4.60075">
        <ele>484</ele>
        <time>2025-10-29T22:46:43Z</time>
      </trkpt>
      <trkpt lat="45.97401" lon="4.60051">
        <ele>489</ele>
        <time>2025-10-29T22:47:08Z</time>
      </trkpt>
      <trkpt lat="45.97404" lon="4.60031">
        <ele>494</ele>
        <time>2025-10-29T22:47:27Z</time>
      </trkpt>
      <trkpt lat="45.97406" lon="4.60025">
        <ele>495</ele>
        <time>2025-10-29T22:47:33Z</time>
      </trkpt>
      <trkpt lat="45.97404" lon="4.60011">
        <ele>499</ele>
        <time>2025-10-29T22:47:46Z</time>
      </trkpt>
      <trkpt lat="45.97401" lon="4.6001">
        <ele>499</ele>
        <time>2025-10-29T22:47:50Z</time>
      </trkpt>
      <trkpt lat="45.97378" lon="4.60014">
        <ele>496</ele>
        <time>2025-10-29T22:48:21Z</time>
      </trkpt>
      <trkpt lat="45.97371" lon="4.60013">
        <ele>496</ele>
        <time>2025-10-29T22:48:31Z</time>
      </trkpt>
      <trkpt lat="45.97366" lon="4.6">
        <ele>498</ele>
        <time>2025-10-29T22:48:45Z</time>
      </trkpt>
      <trkpt lat="45.97354" lon="4.59981">
        <ele>500</ele>
        <time>2025-10-29T22:49:08Z</time>
      </trkpt>
      <trkpt lat="45.97341" lon="4.59955">
        <ele>503</ele>
        <time>2025-10-29T22:49:38Z</time>
      </trkpt>
      <trkpt lat="45.9733" lon="4.59926">
        <ele>506</ele>
        <time>2025-10-29T22:50:09Z</time>
      </trkpt>
      <trkpt lat="45.97321" lon="4.59908">
        <ele>506</ele>
        <time>2025-10-29T22:50:29Z</time>
      </trkpt>
      <trkpt lat="45.9731" lon="4.59871">
        <ele>507</ele>
        <time>2025-10-29T22:51:07Z</time>
      </trkpt>
      <trkpt lat="45.97301" lon="4.59853">
        <ele>507</ele>
        <time>2025-10-29T22:51:27Z</time>
      </trkpt>
      <trkpt lat="45.97274" lon="4.59826">
        <ele>503</ele>
        <time>2025-10-29T22:52:11Z</time>
      </trkpt>
      <trkpt lat="45.97259" lon="4.59802">
        <ele>504</ele>
        <time>2025-10-29T22:52:41Z</time>
      </trkpt>
      <trkpt lat="45.97254" lon="4.59779">
        <ele>508</ele>
        <time>2025-10-29T22:53:03Z</time>
      </trkpt>
      <trkpt lat="45.97249" lon="4.59758">
        <ele>512</ele>
        <time>2025-10-29T22:53:24Z</time>
      </trkpt>
      <trkpt lat="45.97232" lon="4.59714">
        <ele>516</ele>
        <time>2025-10-29T22:54:11Z</time>
      </trkpt>
      <trkpt lat="45.97224" lon="4.59699">
        <ele>516</ele>
        <time>2025-10-29T22:54:28Z</time>
      </trkpt>
      <trkpt lat="45.97213" lon="4.5968">
        <ele>517</ele>
        <time>2025-10-29T22:54:51Z</time>
      </trkpt>
      <trkpt lat="45.97197" lon="4.59664">
        <ele>516</ele>
        <time>2025-10-29T22:55:17Z</time>
      </trkpt>
      <trkpt lat="45.97168" lon="4.59613">
        <ele>516</ele>
        <time>2025-10-29T22:56:18Z</time>
      </trkpt>
      <trkpt lat="45.97163" lon="4.59614">
        <ele>515</ele>
        <time>2025-10-29T22:56:25Z</time>
      </trkpt>
      <trkpt lat="45.97153" lon="4.59613">
        <ele>515</ele>
        <time>2025-10-29T22:56:38Z</time>
      </trkpt>
      <trkpt lat="45.97138" lon="4.59615">
        <ele>514</ele>
        <time>2025-10-29T22:56:58Z</time>
      </trkpt>
      <trkpt lat="45.97125" lon="4.59619">
        <ele>513</ele>
        <time>2025-10-29T22:57:16Z</time>
      </trkpt>
      <trkpt lat="45.97105" lon="4.59631">
        <ele>510</ele>
        <time>2025-10-29T22:57:45Z</time>
      </trkpt>
      <trkpt lat="45.97096" lon="4.59632">
        <ele>510</ele>
        <time>2025-10-29T22:57:57Z</time>
      </trkpt>
      <trkpt lat="45.97083" lon="4.59631">
        <ele>509</ele>
        <time>2025-10-29T22:58:14Z</time>
      </trkpt>
      <trkpt lat="45.97074" lon="4.5963">
        <ele>510</ele>
        <time>2025-10-29T22:58:27Z</time>
      </trkpt>
      <trkpt lat="45.97062" lon="4.5963">
        <ele>511</ele>
        <time>2025-10-29T22:58:43Z</time>
      </trkpt>
      <trkpt lat="45.97025" lon="4.59653">
        <ele>513</ele>
        <time>2025-10-29T22:59:36Z</time>
      </trkpt>
      <trkpt lat="45.9701" lon="4.59667">
        <ele>513</ele>
        <time>2025-10-29T23:00:00Z</time>
      </trkpt>
      <trkpt lat="45.96997" lon="4.59682">
        <ele>514</ele>
        <time>2025-10-29T23:00:22Z</time>
      </trkpt>
      <trkpt lat="45.96985" lon="4.59696">
        <ele>515</ele>
        <time>2025-10-29T23:00:43Z</time>
      </trkpt>
      <trkpt lat="45.96981" lon="4.59709">
        <ele>515</ele>
        <time>2025-10-29T23:00:56Z</time>
      </trkpt>
      <trkpt lat="45.96982" lon="4.59721">
        <ele>514</ele>
        <time>2025-10-29T23:01:07Z</time>
      </trkpt>
      <trkpt lat="45.96985" lon="4.59736">
        <ele>513</ele>
        <time>2025-10-29T23:01:22Z</time>
      </trkpt>
      <trkpt lat="45.96996" lon="4.59751">
        <ele>511</ele>
        <time>2025-10-29T23:01:42Z</time>
      </trkpt>
      <trkpt lat="45.97014" lon="4.59768">
        <ele>509</ele>
        <time>2025-10-29T23:02:11Z</time>
      </trkpt>
      <trkpt lat="45.97027" lon="4.59784">
        <ele>506</ele>
        <time>2025-10-29T23:02:34Z</time>
      </trkpt>
      <trkpt lat="45.97031" lon="4.59797">
        <ele>505</ele>
        <time>2025-10-29T23:02:47Z</time>
      </trkpt>
      <trkpt lat="45.97031" lon="4.59803">
        <ele>505</ele>
        <time>2025-10-29T23:02:52Z</time>
      </trkpt>
      <trkpt lat="45.97031" lon="4.59804">
        <ele>505</ele>
        <time>2025-10-29T23:02:53Z</time>
      </trkpt>
      <trkpt lat="45.97031" lon="4.59803">
        <ele>505</ele>
        <time>2025-10-29T23:02:54Z</time>
      </trkpt>
      <trkpt lat="45.97016" lon="4.59803">
        <ele>507</ele>
        <time>2025-10-29T23:03:14Z</time>
      </trkpt>
      <trkpt lat="45.97004" lon="4.5981">
        <ele>509</ele>
        <time>2025-10-29T23:03:32Z</time>
      </trkpt>
      <trkpt lat="45.9699" lon="4.59811">
        <ele>511</ele>
        <time>2025-10-29T23:03:50Z</time>
      </trkpt>
      <trkpt lat="45.96969" lon="4.59814">
        <ele>515</ele>
        <time>2025-10-29T23:04:18Z</time>
      </trkpt>
      <trkpt lat="45.96948" lon="4.59818">
        <ele>519</ele>
        <time>2025-10-29T23:04:47Z</time>
      </trkpt>
      <trkpt lat="45.96868" lon="4.5986">
        <ele>533</ele>
        <time>2025-10-29T23:06:40Z</time>
      </trkpt>
      <trkpt lat="45.96813" lon="4.59886">
        <ele>545</ele>
        <time>2025-10-29T23:07:58Z</time>
      </trkpt>
      <trkpt lat="45.96808" lon="4.59886">
        <ele>546</ele>
        <time>2025-10-29T23:08:04Z</time>
      </trkpt>
      <trkpt lat="45.96803" lon="4.59884">
        <ele>547</ele>
        <time>2025-10-29T23:08:11Z</time>
      </trkpt>
      <trkpt lat="45.96795" lon="4.5989">
        <ele>549</ele>
        <time>2025-10-29T23:08:23Z</time>
      </trkpt>
      <trkpt lat="45.9679" lon="4.59892">
        <ele>550</ele>
        <time>2025-10-29T23:08:30Z</time>
      </trkpt>
      <trkpt lat="45.96785" lon="4.59891">
        <ele>551</ele>
        <time>2025-10-29T23:08:37Z</time>
      </trkpt>
      <trkpt lat="45.96756" lon="4.59908">
        <ele>556</ele>
        <time>2025-10-29T23:09:19Z</time>
      </trkpt>
      <trkpt lat="45.96741" lon="4.59909">
        <ele>558</ele>
        <time>2025-10-29T23:09:39Z</time>
      </trkpt>
      <trkpt lat="45.9673" lon="4.59908">
        <ele>559</ele>
        <time>2025-10-29T23:09:53Z</time>
      </trkpt>
      <trkpt lat="45.96717" lon="4.59905">
        <ele>560</ele>
        <time>2025-10-29T23:10:11Z</time>
      </trkpt>
      <trkpt lat="45.96692" lon="4.59897">
        <ele>562</ele>
        <time>2025-10-29T23:10:45Z</time>
      </trkpt>
      <trkpt lat="45.96688" lon="4.59898">
        <ele>563</ele>
        <time>2025-10-29T23:10:51Z</time>
      </trkpt>
      <trkpt lat="45.96682" lon="4.59894">
        <ele>563</ele>
        <time>2025-10-29T23:10:59Z</time>
      </trkpt>
      <trkpt lat="45.96676" lon="4.59883">
        <ele>565</ele>
        <time>2025-10-29T23:11:12Z</time>
      </trkpt>
      <trkpt lat="45.96665" lon="4.59873">
        <ele>567</ele>
        <time>2025-10-29T23:11:30Z</time>
      </trkpt>
      <trkpt lat="45.9665" lon="4.59856">
        <ele>567</ele>
        <time>2025-10-29T23:11:55Z</time>
      </trkpt>
      <trkpt lat="45.96634" lon="4.59814">
        <ele>570</ele>
        <time>2025-10-29T23:12:40Z</time>
      </trkpt>
      <trkpt lat="45.96632" lon="4.59804">
        <ele>571</ele>
        <time>2025-10-29T23:12:49Z</time>
      </trkpt>
      <trkpt lat="45.9663" lon="4.59801">
        <ele>571</ele>
        <time>2025-10-29T23:12:53Z</time>
      </trkpt>
      <trkpt lat="45.96625" lon="4.59795">
        <ele>571</ele>
        <time>2025-10-29T23:13:02Z</time>
      </trkpt>
      <trkpt lat="45.96622" lon="4.5979">
        <ele>572</ele>
        <time>2025-10-29T23:13:08Z</time>
      </trkpt>
      <trkpt lat="45.9661" lon="4.59773">
        <ele>573</ele>
        <time>2025-10-29T23:13:30Z</time>
      </trkpt>
      <trkpt lat="45.96605" lon="4.59763">
        <ele>573</ele>
        <time>2025-10-29T23:13:42Z</time>
      </trkpt>
      <trkpt lat="45.96569" lon="4.59714">
        <ele>579</ele>
        <time>2025-10-29T23:14:48Z</time>
      </trkpt>
      <trkpt lat="45.96559" lon="4.59694">
        <ele>581</ele>
        <time>2025-10-29T23:15:11Z</time>
      </trkpt>
      <trkpt lat="45.96553" lon="4.59674">
        <ele>584</ele>
        <time>2025-10-29T23:15:31Z</time>
      </trkpt>
      <trkpt lat="45.96548" lon="4.59627">
        <ele>590</ele>
        <time>2025-10-29T23:16:15Z</time>
      </trkpt>
      <trkpt lat="45.96545" lon="4.59614">
        <ele>592</ele>
        <time>2025-10-29T23:16:28Z</time>
      </trkpt>
      <trkpt lat="45.96535" lon="4.59597">
        <ele>593</ele>
        <time>2025-10-29T23:16:49Z</time>
      </trkpt>
      <trkpt lat="45.96521" lon="4.5956">
        <ele>598</ele>
        <time>2025-10-29T23:17:28Z</time>
      </trkpt>
      <trkpt lat="45.96511" lon="4.59544">
        <ele>599</ele>
        <time>2025-10-29T23:17:48Z</time>
      </trkpt>
      <trkpt lat="45.96501" lon="4.59538">
        <ele>599</ele>
        <time>2025-10-29T23:18:02Z</time>
      </trkpt>
      <trkpt lat="45.96497" lon="4.59534">
        <ele>600</ele>
        <time>2025-10-29T23:18:09Z</time>
      </trkpt>
      <trkpt lat="45.96494" lon="4.59526">
        <ele>601</ele>
        <time>2025-10-29T23:18:17Z</time>
      </trkpt>
      <trkpt lat="45.96491" lon="4.59522">
        <ele>602</ele>
        <time>2025-10-29T23:18:22Z</time>
      </trkpt>
      <trkpt lat="45.9648" lon="4.59513">
        <ele>602</ele>
        <time>2025-10-29T23:18:39Z</time>
      </trkpt>
      <trkpt lat="45.96467" lon="4.59499">
        <ele>604</ele>
        <time>2025-10-29T23:19:01Z</time>
      </trkpt>
      <trkpt lat="45.96463" lon="4.59491">
        <ele>605</ele>
        <time>2025-10-29T23:19:10Z</time>
      </trkpt>
      <trkpt lat="45.9645" lon="4.59478">
        <ele>606</ele>
        <time>2025-10-29T23:19:31Z</time>
      </trkpt>
      <trkpt lat="45.96439" lon="4.59468">
        <ele>607</ele>
        <time>2025-10-29T23:19:49Z</time>
      </trkpt>
      <trkpt lat="45.96422" lon="4.59457">
        <ele>608</ele>
        <time>2025-10-29T23:20:14Z</time>
      </trkpt>
      <trkpt lat="45.9641" lon="4.5945">
        <ele>610</ele>
        <time>2025-10-29T23:20:31Z</time>
      </trkpt>
      <trkpt lat="45.96391" lon="4.59436">
        <ele>614</ele>
        <time>2025-10-29T23:20:59Z</time>
      </trkpt>
      <trkpt lat="45.96381" lon="4.5943">
        <ele>615</ele>
        <time>2025-10-29T23:21:14Z</time>
      </trkpt>
      <trkpt lat="45.96369" lon="4.59422">
        <ele>618</ele>
        <time>2025-10-29T23:21:31Z</time>
      </trkpt>
      <trkpt lat="45.96339" lon="4.59407">
        <ele>621</ele>
        <time>2025-10-29T23:22:14Z</time>
      </trkpt>
      <trkpt lat="45.96327" lon="4.59396">
        <ele>623</ele>
        <time>2025-10-29T23:22:33Z</time>
      </trkpt>
      <trkpt lat="45.96315" lon="4.59376">
        <ele>625</ele>
        <time>2025-10-29T23:22:57Z</time>
      </trkpt>
      <trkpt lat="45.96305" lon="4.59366">
        <ele>626</ele>
        <time>2025-10-29T23:23:14Z</time>
      </trkpt>
      <trkpt lat="45.9629" lon="4.59355">
        <ele>628</ele>
        <time>2025-10-29T23:23:36Z</time>
      </trkpt>
      <trkpt lat="45.96283" lon="4.59348">
        <ele>629</ele>
        <time>2025-10-29T23:23:47Z</time>
      </trkpt>
      <trkpt lat="45.96276" lon="4.59345">
        <ele>630</ele>
        <time>2025-10-29T23:23:57Z</time>
      </trkpt>
      <trkpt lat="45.9626" lon="4.59331">
        <ele>632</ele>
        <time>2025-10-29T23:24:22Z</time>
      </trkpt>
      <trkpt lat="45.96214" lon="4.5931">
        <ele>633</ele>
        <time>2025-10-29T23:25:27Z</time>
      </trkpt>
      <trkpt lat="45.96189" lon="4.59292">
        <ele>635</ele>
        <time>2025-10-29T23:26:04Z</time>
      </trkpt>
      <trkpt lat="45.9614" lon="4.59274">
        <ele>634</ele>
        <time>2025-10-29T23:27:11Z</time>
      </trkpt>
      <trkpt lat="45.96092" lon="4.59263">
        <ele>633</ele>
        <time>2025-10-29T23:28:16Z</time>
      </trkpt>
      <trkpt lat="45.96072" lon="4.5926">
        <ele>633</ele>
        <time>2025-10-29T23:28:43Z</time>
      </trkpt>
      <trkpt lat="45.9605" lon="4.59251">
        <ele>634</ele>
        <time>2025-10-29T23:29:14Z</time>
      </trkpt>
      <trkpt lat="45.9604" lon="4.59245">
        <ele>634</ele>
        <time>2025-10-29T23:29:28Z</time>
      </trkpt>
      <trkpt lat="45.96021" lon="4.59229">
        <ele>634</ele>
        <time>2025-10-29T23:29:57Z</time>
      </trkpt>
      <trkpt lat="45.96003" lon="4.5921">
        <ele>634</ele>
        <time>2025-10-29T23:30:27Z</time>
      </trkpt>
      <trkpt lat="45.95985" lon="4.59184">
        <ele>633</ele>
        <time>2025-10-29T23:31:01Z</time>
      </trkpt>
      <trkpt lat="45.95948" lon="4.59156">
        <ele>630</ele>
        <time>2025-10-29T23:31:57Z</time>
      </trkpt>
      <trkpt lat="45.95957" lon="4.5915">
        <ele>630</ele>
        <time>2025-10-29T23:32:10Z</time>
      </trkpt>
      <trkpt lat="45.95948" lon="4.59156">
        <ele>630</ele>
        <time>2025-10-29T23:32:23Z</time>
      </trkpt>
      <trkpt lat="45.95932" lon="4.59164">
        <ele>629</ele>
        <time>2025-10-29T23:32:46Z</time>
      </trkpt>
      <trkpt lat="45.95921" lon="4.59174">
        <ele>630</ele>
        <time>2025-10-29T23:33:03Z</time>
      </trkpt>
      <trkpt lat="45.95899" lon="4.59201">
        <ele>631</ele>
        <time>2025-10-29T23:33:42Z</time>
      </trkpt>
      <trkpt lat="45.95887" lon="4.59212">
        <ele>631</ele>
        <time>2025-10-29T23:34:01Z</time>
      </trkpt>
      <trkpt lat="45.95863" lon="4.59224">
        <ele>631</ele>
        <time>2025-10-29T23:34:35Z</time>
      </trkpt>
      <trkpt lat="45.95808" lon="4.5924">
        <ele>632</ele>
        <time>2025-10-29T23:35:50Z</time>
      </trkpt>
      <trkpt lat="45.95769" lon="4.59258">
        <ele>634</ele>
        <time>2025-10-29T23:36:44Z</time>
      </trkpt>
      <trkpt lat="45.95741" lon="4.59277">
        <ele>635</ele>
        <time>2025-10-29T23:37:26Z</time>
      </trkpt>
      <trkpt lat="45.95691" lon="4.59301">
        <ele>637</ele>
        <time>2025-10-29T23:38:36Z</time>
      </trkpt>
      <trkpt lat="45.95665" lon="4.59314">
        <ele>639</ele>
        <time>2025-10-29T23:39:13Z</time>
      </trkpt>
      <trkpt lat="45.95653" lon="4.59322">
        <ele>641</ele>
        <time>2025-10-29T23:39:30Z</time>
      </trkpt>
      <trkpt lat="45.95558" lon="4.59365">
        <ele>645</ele>
        <time>2025-10-29T23:41:43Z</time>
      </trkpt>
      <trkpt lat="45.95528" lon="4.5939">
        <ele>647</ele>
        <time>2025-10-29T23:42:30Z</time>
      </trkpt>
      <trkpt lat="45.95487" lon="4.59424">
        <ele>648</ele>
        <time>2025-10-29T23:43:33Z</time>
      </trkpt>
      <trkpt lat="45.95463" lon="4.59446">
        <ele>647</ele>
        <time>2025-10-29T23:44:11Z</time>
      </trkpt>
      <trkpt lat="45.95443" lon="4.59469">
        <ele>647</ele>
        <time>2025-10-29T23:44:45Z</time>
      </trkpt>
      <trkpt lat="45.95438" lon="4.59472">
        <ele>647</ele>
        <time>2025-10-29T23:44:52Z</time>
      </trkpt>
      <trkpt lat="45.95414" lon="4.59496">
        <ele>647</ele>
        <time>2025-10-29T23:45:31Z</time>
      </trkpt>
      <trkpt lat="45.95408" lon="4.59498">
        <ele>646</ele>
        <time>2025-10-29T23:45:39Z</time>
      </trkpt>
      <trkpt lat="45.95398" lon="4.59508">
        <ele>645</ele>
        <time>2025-10-29T23:45:56Z</time>
      </trkpt>
      <trkpt lat="45.9539" lon="4.59521">
        <ele>645</ele>
        <time>2025-10-29T23:46:12Z</time>
      </trkpt>
      <trkpt lat="45.95389" lon="4.59523">
        <ele>645</ele>
        <time>2025-10-29T23:46:14Z</time>
      </trkpt>
      <trkpt lat="45.95367" lon="4.59563">
        <ele>645</ele>
        <time>2025-10-29T23:47:01Z</time>
      </trkpt>
      <trkpt lat="45.95349" lon="4.59602">
        <ele>646</ele>
        <time>2025-10-29T23:47:45Z</time>
      </trkpt>
      <trkpt lat="45.95337" lon="4.59633">
        <ele>647</ele>
        <time>2025-10-29T23:48:18Z</time>
      </trkpt>
      <trkpt lat="45.95304" lon="4.59692">
        <ele>643</ele>
        <time>2025-10-29T23:49:28Z</time>
      </trkpt>
      <trkpt lat="45.95289" lon="4.59743">
        <ele>642</ele>
        <time>2025-10-29T23:50:19Z</time>
      </trkpt>
      <trkpt lat="45.95277" lon="4.59779">
        <ele>641</ele>
        <time>2025-10-29T23:50:56Z</time>
      </trkpt>
      <trkpt lat="45.95254" lon="4.59867">
        <ele>636</ele>
        <time>2025-10-29T23:52:24Z</time>
      </trkpt>
      <trkpt lat="45.95208" lon="4.60002">
        <ele>618</ele>
        <time>2025-10-29T23:54:43Z</time>
      </trkpt>
      <trkpt lat="45.95197" lon="4.6003">
        <ele>613</ele>
        <time>2025-10-29T23:55:13Z</time>
      </trkpt>
      <trkpt lat="45.95176" lon="4.60064">
        <ele>607</ele>
        <time>2025-10-29T23:55:55Z</time>
      </trkpt>
      <trkpt lat="45.95168" lon="4.60083">
        <ele>605</ele>
        <time>2025-10-29T23:56:16Z</time>
      </trkpt>
      <trkpt lat="45.95149" lon="4.60115">
        <ele>598</ele>
        <time>2025-10-29T23:56:55Z</time>
      </trkpt>
      <trkpt lat="45.95139" lon="4.60129">
        <ele>595</ele>
        <time>2025-10-29T23:57:13Z</time>
      </trkpt>
      <trkpt lat="45.95125" lon="4.60151">
        <ele>590</ele>
        <time>2025-10-29T23:57:41Z</time>
      </trkpt>
      <trkpt lat="45.95118" lon="4.60167">
        <ele>588</ele>
        <time>2025-10-29T23:57:59Z</time>
      </trkpt>
      <trkpt lat="45.95105" lon="4.60191">
        <ele>583</ele>
        <time>2025-10-29T23:58:27Z</time>
      </trkpt>
      <trkpt lat="45.95082" lon="4.60229">
        <ele>576</ele>
        <time>2025-10-29T23:59:14Z</time>
      </trkpt>
      <trkpt lat="45.95059" lon="4.60241">
        <ele>574</ele>
        <time>2025-10-29T23:59:46Z</time>
      </trkpt>
      <trkpt lat="45.95036" lon="4.60259">
        <ele>573</ele>
        <time>2025-10-30T00:00:21Z</time>
      </trkpt>
      <trkpt lat="45.9503" lon="4.60264">
        <ele>573</ele>
        <time>2025-10-30T00:00:30Z</time>
      </trkpt>
      <trkpt lat="45.95018" lon="4.60221">
        <ele>570</ele>
        <time>2025-10-30T00:01:13Z</time>
      </trkpt>
      <trkpt lat="45.95009" lon="4.60163">
        <ele>564</ele>
        <time>2025-10-30T00:02:09Z</time>
      </trkpt>
      <trkpt lat="45.95003" lon="4.60146">
        <ele>561</ele>
        <time>2025-10-30T00:02:26Z</time>
      </trkpt>
      <trkpt lat="45.94996" lon="4.60132">
        <ele>558</ele>
        <time>2025-10-30T00:02:42Z</time>
      </trkpt>
      <trkpt lat="45.94999" lon="4.6011">
        <ele>557</ele>
        <time>2025-10-30T00:03:03Z</time>
      </trkpt>
      <trkpt lat="45.95005" lon="4.60078">
        <ele>556</ele>
        <time>2025-10-30T00:03:34Z</time>
      </trkpt>
      <trkpt lat="45.95008" lon="4.60042">
        <ele>556</ele>
        <time>2025-10-30T00:04:07Z</time>
      </trkpt>
      <trkpt lat="45.9501" lon="4.59927">
        <ele>554</ele>
        <time>2025-10-30T00:05:54Z</time>
      </trkpt>
      <trkpt lat="45.95011" lon="4.59883">
        <ele>554</ele>
        <time>2025-10-30T00:06:35Z</time>
      </trkpt>
      <trkpt lat="45.95009" lon="4.59802">
        <ele>554</ele>
        <time>2025-10-30T00:07:50Z</time>
      </trkpt>
      <trkpt lat="45.95004" lon="4.5978">
        <ele>553</ele>
        <time>2025-10-30T00:08:12Z</time>
      </trkpt>
      <trkpt lat="45.95001" lon="4.59767">
        <ele>553</ele>
        <time>2025-10-30T00:08:24Z</time>
      </trkpt>
      <trkpt lat="45.94999" lon="4.59756">
        <ele>553</ele>
        <time>2025-10-30T00:08:35Z</time>
      </trkpt>
      <trkpt lat="45.95" lon="4.59702">
        <ele>554</ele>
        <time>2025-10-30T00:09:25Z</time>
      </trkpt>
      <trkpt lat="45.94995" lon="4.59616">
        <ele>554</ele>
        <time>2025-10-30T00:10:45Z</time>
      </trkpt>
      <trkpt lat="45.94997" lon="4.59586">
        <ele>555</ele>
        <time>2025-10-30T00:11:13Z</time>
      </trkpt>
      <trkpt lat="45.94996" lon="4.59498">
        <ele>560</ele>
        <time>2025-10-30T00:12:35Z</time>
      </trkpt>
      <trkpt lat="45.94994" lon="4.59487">
        <ele>561</ele>
        <time>2025-10-30T00:12:45Z</time>
      </trkpt>
      <trkpt lat="45.94988" lon="4.59468">
        <ele>562</ele>
        <time>2025-10-30T00:13:05Z</time>
      </trkpt>
      <trkpt lat="45.94964" lon="4.59413">
        <ele>564</ele>
        <time>2025-10-30T00:14:05Z</time>
      </trkpt>
      <trkpt lat="45.94945" lon="4.59374">
        <ele>565</ele>
        <time>2025-10-30T00:14:49Z</time>
      </trkpt>
      <trkpt lat="45.94942" lon="4.59362">
        <ele>565</ele>
        <time>2025-10-30T00:15:01Z</time>
      </trkpt>
      <trkpt lat="45.94931" lon="4.59363">
        <ele>564</ele>
        <time>2025-10-30T00:15:16Z</time>
      </trkpt>
      <trkpt lat="45.94898" lon="4.59309">
        <ele>562</ele>
        <time>2025-10-30T00:16:22Z</time>
      </trkpt>
      <trkpt lat="45.94887" lon="4.59289">
        <ele>559</ele>
        <time>2025-10-30T00:16:46Z</time>
      </trkpt>
      <trkpt lat="45.94881" lon="4.59274">
        <ele>558</ele>
        <time>2025-10-30T00:17:02Z</time>
      </trkpt>
      <trkpt lat="45.94879" lon="4.59262">
        <ele>557</ele>
        <time>2025-10-30T00:17:14Z</time>
      </trkpt>
      <trkpt lat="45.9488" lon="4.5925">
        <ele>557</ele>
        <time>2025-10-30T00:17:25Z</time>
      </trkpt>
      <trkpt lat="45.94884" lon="4.59224">
        <ele>555</ele>
        <time>2025-10-30T00:17:49Z</time>
      </trkpt>
      <trkpt lat="45.94888" lon="4.5919">
        <ele>553</ele>
        <time>2025-10-30T00:18:21Z</time>
      </trkpt>
      <trkpt lat="45.94889" lon="4.59172">
        <ele>552</ele>
        <time>2025-10-30T00:18:38Z</time>
      </trkpt>
      <trkpt lat="45.94887" lon="4.59154">
        <ele>550</ele>
        <time>2025-10-30T00:18:55Z</time>
      </trkpt>
      <trkpt lat="45.94877" lon="4.59105">
        <ele>544</ele>
        <time>2025-10-30T00:19:43Z</time>
      </trkpt>
      <trkpt lat="45.94877" lon="4.59096">
        <ele>543</ele>
        <time>2025-10-30T00:19:51Z</time>
      </trkpt>
      <trkpt lat="45.9488" lon="4.59071">
        <ele>541</ele>
        <time>2025-10-30T00:20:14Z</time>
      </trkpt>
      <trkpt lat="45.9488" lon="4.59055">
        <ele>540</ele>
        <time>2025-10-30T00:20:29Z</time>
      </trkpt>
      <trkpt lat="45.94878" lon="4.59042">
        <ele>539</ele>
        <time>2025-10-30T00:20:42Z</time>
      </trkpt>
      <trkpt lat="45.94874" lon="4.59031">
        <ele>538</ele>
        <time>2025-10-30T00:20:53Z</time>
      </trkpt>
      <trkpt lat="45.94861" lon="4.59006">
        <ele>535</ele>
        <time>2025-10-30T00:21:22Z</time>
      </trkpt>
      <trkpt lat="45.94843" lon="4.58974">
        <ele>533</ele>
        <time>2025-10-30T00:22:00Z</time>
      </trkpt>
      <trkpt lat="45.94839" lon="4.58963">
        <ele>533</ele>
        <time>2025-10-30T00:22:12Z</time>
      </trkpt>
      <trkpt lat="45.94838" lon="4.58951">
        <ele>532</ele>
        <time>2025-10-30T00:22:23Z</time>
      </trkpt>
      <trkpt lat="45.94839" lon="4.58931">
        <ele>532</ele>
        <time>2025-10-30T00:22:42Z</time>
      </trkpt>
      <trkpt lat="45.94839" lon="4.58924">
        <ele>532</ele>
        <time>2025-10-30T00:22:48Z</time>
      </trkpt>
      <trkpt lat="45.94836" lon="4.58918">
        <ele>531</ele>
        <time>2025-10-30T00:22:55Z</time>
      </trkpt>
      <trkpt lat="45.94834" lon="4.58915">
        <ele>531</ele>
        <time>2025-10-30T00:22:59Z</time>
      </trkpt>
      <trkpt lat="45.94836" lon="4.58909">
        <ele>530</ele>
        <time>2025-10-30T00:23:05Z</time>
      </trkpt>
      <trkpt lat="45.94851" lon="4.58863">
        <ele>526</ele>
        <time>2025-10-30T00:23:52Z</time>
      </trkpt>
      <trkpt lat="45.94863" lon="4.58835">
        <ele>524</ele>
        <time>2025-10-30T00:24:23Z</time>
      </trkpt>
      <trkpt lat="45.94897" lon="4.58776">
        <ele>521</ele>
        <time>2025-10-30T00:25:34Z</time>
      </trkpt>
      <trkpt lat="45.94925" lon="4.58739">
        <ele>522</ele>
        <time>2025-10-30T00:26:25Z</time>
      </trkpt>
      <trkpt lat="45.9494" lon="4.58715">
        <ele>522</ele>
        <time>2025-10-30T00:26:54Z</time>
      </trkpt>
      <trkpt lat="45.9495" lon="4.58691">
        <ele>522</ele>
        <time>2025-10-30T00:27:20Z</time>
      </trkpt>
      <trkpt lat="45.94953" lon="4.58667">
        <ele>521</ele>
        <time>2025-10-30T00:27:43Z</time>
      </trkpt>
      <trkpt lat="45.94953" lon="4.58649">
        <ele>522</ele>
        <time>2025-10-30T00:28:00Z</time>
      </trkpt>
      <trkpt lat="45.94952" lon="4.5863">
        <ele>522</ele>
        <time>2025-10-30T00:28:17Z</time>
      </trkpt>
      <trkpt lat="45.9495" lon="4.58608">
        <ele>522</ele>
        <time>2025-10-30T00:28:38Z</time>
      </trkpt>
      <trkpt lat="45.94946" lon="4.58587">
        <ele>522</ele>
        <time>2025-10-30T00:28:58Z</time>
      </trkpt>
      <trkpt lat="45.94942" lon="4.5857">
        <ele>523</ele>
        <time>2025-10-30T00:29:15Z</time>
      </trkpt>
      <trkpt lat="45.9493" lon="4.58535">
        <ele>524</ele>
        <time>2025-10-30T00:29:51Z</time>
      </trkpt>
      <trkpt lat="45.94911" lon="4.58479">
        <ele>525</ele>
        <time>2025-10-30T00:30:49Z</time>
      </trkpt>
      <trkpt lat="45.94905" lon="4.58458">
        <ele>525</ele>
        <time>2025-10-30T00:31:10Z</time>
      </trkpt>
      <trkpt lat="45.94903" lon="4.5845">
        <ele>525</ele>
        <time>2025-10-30T00:31:18Z</time>
      </trkpt>
      <trkpt lat="45.94902" lon="4.58438">
        <ele>525</ele>
        <time>2025-10-30T00:31:29Z</time>
      </trkpt>
      <trkpt lat="45.94899" lon="4.58401">
        <ele>526</ele>
        <time>2025-10-30T00:32:04Z</time>
      </trkpt>
      <trkpt lat="45.949" lon="4.58388">
        <ele>527</ele>
        <time>2025-10-30T00:32:16Z</time>
      </trkpt>
      <trkpt lat="45.94899" lon="4.58368">
        <ele>527</ele>
        <time>2025-10-30T00:32:34Z</time>
      </trkpt>
      <trkpt lat="45.94862" lon="4.58366">
        <ele>527</ele>
        <time>2025-10-30T00:33:24Z</time>
      </trkpt>
      <trkpt lat="45.9485" lon="4.58365">
        <ele>527</ele>
        <time>2025-10-30T00:33:40Z</time>
      </trkpt>
      <trkpt lat="45.94824" lon="4.58357">
        <ele>527</ele>
        <time>2025-10-30T00:34:15Z</time>
      </trkpt>
      <trkpt lat="45.94788" lon="4.5834">
        <ele>526</ele>
        <time>2025-10-30T00:35:06Z</time>
      </trkpt>
      <trkpt lat="45.94776" lon="4.58333">
        <ele>527</ele>
        <time>2025-10-30T00:35:23Z</time>
      </trkpt>
      <trkpt lat="45.94765" lon="4.58326">
        <ele>527</ele>
        <time>2025-10-30T00:35:39Z</time>
      </trkpt>
      <trkpt lat="45.94738" lon="4.58311">
        <ele>527</ele>
        <time>2025-10-30T00:36:18Z</time>
      </trkpt>
      <trkpt lat="45.94724" lon="4.58304">
        <ele>527</ele>
        <time>2025-10-30T00:36:38Z</time>
      </trkpt>
      <trkpt lat="45.947" lon="4.58295">
        <ele>527</ele>
        <time>2025-10-30T00:37:11Z</time>
      </trkpt>
      <trkpt lat="45.9468" lon="4.58287">
        <ele>526</ele>
        <time>2025-10-30T00:37:38Z</time>
      </trkpt>
      <trkpt lat="45.94673" lon="4.58279">
        <ele>526</ele>
        <time>2025-10-30T00:37:50Z</time>
      </trkpt>
      <trkpt lat="45.94662" lon="4.58277">
        <ele>525</ele>
        <time>2025-10-30T00:38:05Z</time>
      </trkpt>
      <trkpt lat="45.94635" lon="4.5828">
        <ele>524</ele>
        <time>2025-10-30T00:38:41Z</time>
      </trkpt>
      <trkpt lat="45.94587" lon="4.58298">
        <ele>521</ele>
        <time>2025-10-30T00:39:47Z</time>
      </trkpt>
      <trkpt lat="45.94545" lon="4.58316">
        <ele>521</ele>
        <time>2025-10-30T00:40:46Z</time>
      </trkpt>
      <trkpt lat="45.94489" lon="4.58343">
        <ele>519</ele>
        <time>2025-10-30T00:42:05Z</time>
      </trkpt>
      <trkpt lat="45.94487" lon="4.58344">
        <ele>519</ele>
        <time>2025-10-30T00:42:08Z</time>
      </trkpt>
    </trkseg>
  </trk>
</gpx>